GEESAT 6-08

导读

GEESAT 6-08是中国于2025年9月24日发射的卫星,属于吉利控股集团旗下GEESATCOM低轨卫星物联网星座。该次发射是吉利星座一期部署的第六次任务,完成一期建设后,在轨卫星总数达到64颗,星座可实现除两极外全球全覆盖,为各类场景提供可靠的实时物联网通信服务。

基本信息
目录编号:
65720
目录名称:
GEESAT 6-08
国际标识:
2025-214J
轨道中心:
EARTH
卫星名称:
GEESAT 6-08
卫星全名:
GEESAT 6-08
卫星状态:
在轨 (已飞行306 天)
发射日期:
2025-09-24 UTC
国别 :
中国 (CN)
星等 :
--
轨道信息
数据来源 国际轨道数据 AOE轨道数据
星历时间 2026-07-27T09:06:47+0800
21小时前
查看轨道信息
2026-07-23T01:00:00+0800
5天前
查看轨道信息
半长轴 6996.529km 6996.565km
偏心率 0.0009903 0.0010073
轨道倾角 49.991° 49.988°
近地点辐角 6.754° 351.288°
升交点赤经 123.752° 143.856°
平近点角 353.353° 225.048°
近地点 611.463km 611.38km
远地点 625.321km 625.476km
周期 97.070分钟 97.070分钟
每日圈数 14.834702 14.834587
详细信息
使用方式:
暂无
2D轨道图
3D轨道图
轨道高度分析图
轨道倾角分析图
轨道综合分析图
查看轨道综合分析图